Voltar ao catálogo

ONEWEB-0568

AtivoComunicaçõesPO
NORAD 56062·PAYLOAD·🇬🇧 United Kingdom

Lançado Mar 26, 2023 de Satish Dhawan Space Centre

Loading…

Próximas Passagens (próximas 24 horas)

TLE

AtualizadoSource: CelesTrak SupGP

Época: Sep 15, 2026, 00:21 UTC

1 56062C 23043S   26258.01472639 -.00004311  00000+0 -11289-1 0  2586
2 56062  87.9155 210.9346 0001921  86.0408  24.9120 13.16600955    15

Acompanhe ONEWEB-0568 em tempo real com AllMySat

Download on the App Store